Other Public Products
Issued by NWS Charleston, SC

Current Version | Previous Version | Graphics & Text | Print | Product List | Glossary On
Versions: 1 2 3 4 5 6 7 8 9 10 11 12 13 14 15 16 17 18 19 20 21 22 23 24 25 26 27 28 29 30 31 32 33 34 35 36 37 38 39 40 41 42 43 44 45 46 47 48 49 50
000 FPUS82 KCHS 221712 OPUCHS TEST...KCHS/KSAV Gateway Observations...TEST National Weather Service Charleston SC 100 PM EDT SAT JUL 22 2017 NOTE: "fair" indicates few or no clouds below 12,000 feet with no significant weather and/or obstructions to visibility. SCZ050-WAZ558-NCZ071-TXZ119-213-PAZ071-DCZ001-FLZ074-172-MI076- NYZ176-178-MAZ016-IL014-TNZ027-NJZ106-GAZ044-MD014-221800- ...Gateway Observations for Charleston International... CITY SKY/WX TMP DP RH WIND PRES REMARKS Chas Airport MOSUNNY 90 73 57 W7 30.02F HX 98 Seattle PTSUNNY 70 54 56 S7 30.20F Charlotte MOSUNNY 92 72 51 SW9 30.01F HX 99 Dallas DFW MOSUNNY 95 74 50 S8 29.93F HX 105 Dallas Love MOSUNNY 95 71 45 S10 29.94F HX 102 Philladelphia PTSUNNY 92 68 45 S7 29.86F HX 96 Wash National CLOUDY 93 70 46 CALM 29.87F HX 99 Baltimore CLOUDY 94 67 41 W8 29.86F HX 97 Miami PTSUNNY 91 74 57 E10 30.10F HX 100 Detroit PTSUNNY 82 73 74 VRB5 29.80F Newark PTSUNNY 88 54 31 VRB5 29.84F Laguardia PTSUNNY 87 62 43 NE8 29.84F J F K PTSUNNY 87 67 51 S10 29.87F HX 90 Boston Logan CLOUDY 80 61 52 SE6 29.85S Ft. Lauderdale MOSUNNY 89 75 63 SE13 30.09F HX 99 Chicago O`Hare CLOUDY 79 68 69 NW7 29.83S Chicago Midway CLOUDY 80 68 66 VRB6 29.84R Houston Bush PTSUNNY 92 76 59 W7 29.99F HX 104 Houston Hobby PTSUNNY 92 74 55 SW8 29.97F HX 101 Nashville PTSUNNY 94 74 52 NW9 30.01S HX 104 Atlanta MOSUNNY 87 75 67 VRB5 30.05S HX 96 $$ GAZ044-118-TXZ119-213-NCZ071-DCZ001-MDZ014-506-PAZ021-071-NJZ106- NYZ176-178-MAZ106-OHZ011-021-055-MIZ076-KYZ091-ILZ014-INZ047- MNZ060-ONZ431-221800- ...Gateway Observations for Savannah International... CITY SKY/WX TMP DP RH WIND PRES REMARKS Savannah Arpt MOSUNNY 90 72 54 VRB6 30.04F HX 97 Atlanta MOSUNNY 87 75 67 VRB5 30.05S HX 96 Charlotte MOSUNNY 92 72 51 SW9 30.01F HX 99 Dallas DFW MOSUNNY 95 74 50 S8 29.93F HX 105 Houston Bush PTSUNNY 92 76 59 W7 29.99F HX 104 Wash National CLOUDY 93 70 46 CALM 29.87F HX 99 Wash Dulles PTSUNNY 89 72 56 NW5 29.89F HX 96 Baltimore CLOUDY 94 67 41 W8 29.86F HX 97 Philadelphia PTSUNNY 92 68 45 S7 29.86F HX 96 Newark PTSUNNY 88 54 31 VRB5 29.84F Laguardia PTSUNNY 87 62 43 NE8 29.84F J F K PTSUNNY 87 67 51 S10 29.87F HX 90 Boston CLOUDY 80 61 52 SE6 29.85S Pittsburg LGT RAIN 72 71 97 S8 29.88F Akron CLOUDY 73 69 87 SW9 29.87F Cleveland CLOUDY 80 72 76 SW8 29.84F Cincinnati CLOUDY 87 78 74 W13 29.91F HX 100 Columbus CLOUDY 77 75 95 S6 29.87F Detroit PTSUNNY 82 73 74 VRB5 29.80F Chicago O`Hare CLOUDY 79 68 69 NW7 29.83S Minneapolis MOSUNNY 84 68 58 CALM 29.82S Indianapolis CLOUDY 83 75 77 S21 29.80F HX 90 Toronto Canada LGT RAIN 73 63 68 VRB2 29.87F $$

USA.gov is the U.S. government's official web portal to all federal, state and local government web resources and services.